#timestamp,LO_Frequency,Hit,StdDev 
1596891615.1,286047001.0,N
1596891635.9,286046998.6,N
1596891655.7,286046998.5,N
1596891675.5,286047001.1,N
1596891695.4,286047000.9,N
1596891715.2,286047002.3,N
1596891735.0,286047002.5,N
1596891735.9,286047002.5,N
1596891755.8,286047001.6,N
1596891775.6,286047004.2,Y
1596891795.5,286047004.3,P
1596891815.3,286047002.9,N
1596891835.1,286047006.0,P
1596891855.9,286047003.0,N
1596891875.7,286047005.6,Y
1596891895.6,286047002.8,P
1596891915.4,286047000.3,N
1596891935.2,286047000.7,N
1596891955.1,286047000.5,N
1596891956.0,286047000.5,N
1596891975.8,286046998.7,N
1596891995.7,286046998.6,N
1596892015.5,286046999.3,N
1596892035.3,286046999.1,N
1596892055.2,286046999.1,N
1596892075.0,286046999.4,N
1596892075.9,286046999.4,N
1596892095.7,286046998.5,N
1596892115.6,286046999.5,N
1596892135.4,286046996.6,N
1596892155.3,286046998.9,N
1596892175.1,286046999.1,N
1596892176.0,286046999.1,N
1596892195.8,286046999.1,N
1596892215.7,286046999.5,N
1596892235.5,286046996.6,N
1596892255.4,286046996.5,N
1596892275.2,286046999.6,N
1596892295.0,286046999.5,N
1596892295.9,286046999.5,N
1596892315.8,286046997.1,N
1596892335.6,286046997.2,N
1596892355.4,286046997.2,N
1596892375.3,286046997.3,N
1596892395.1,286046995.0,Y
1596892415.9,286046997.1,P
1596892435.7,286046999.6,N
1596892455.5,286046999.0,N
1596892475.4,286046999.5,N
1596892495.4,286046999.5,N
1596892515.2,286046997.0,Y
1596892535.1,286046998.3,P
1596892536.0,286046998.3,P
1596892555.8,286046998.4,P
1596892575.7,286047000.8,N
1596892595.5,286047001.2,N
1596892615.4,286046998.3,N
1596892635.2,286046998.8,N
1596892655.0,286046998.1,N
1596892655.9,286046998.1,N
1596892675.8,286046998.8,N
1596892695.6,286047000.7,N
1596892715.4,286047000.6,N
1596892735.3,286047000.2,N
1596892755.1,286047000.6,N
1596892775.9,286046998.8,N
1596892795.7,286046998.7,N
1596892815.5,286047000.7,N
1596892835.4,286047001.0,N
1596892855.2,286047000.7,N
1596892875.1,286047000.8,N
1596892876.0,286047000.8,N
1596892895.8,286047000.9,N
1596892915.6,286047000.5,N
1596892935.5,286046999.9,N
1596892955.3,286047001.3,N
1596892975.1,286047002.2,N
1596892995.9,286046999.7,N
1596893015.7,286047002.5,N
1596893035.6,286047001.5,N
1596893055.4,286047002.2,N
1596893075.2,286047001.8,N
1596893095.1,286047001.9,N
1596893096.0,286047001.9,N
1596893115.8,286047001.3,N
1596893135.7,286047000.1,N
1596893155.5,286047001.5,N
1596893175.3,286047002.1,N
1596893195.2,286047001.7,N
1596893215.0,286047001.5,N
1596893215.9,286047001.5,N
1596893235.8,286047001.6,N
1596893255.6,286047002.8,N
1596893275.4,286046999.7,N
1596893295.3,286047002.3,N
1596893315.1,286047000.5,N
1596893335.9,286047000.7,N
1596893355.7,286047000.9,N
1596893375.5,286047000.9,N
1596893395.4,286047000.9,N
1596893415.2,286047002.8,Y
1596893435.0,286046999.0,P
1596893436.0,286046999.0,N
1596893455.8,286046999.3,N
1596893475.6,286046998.4,N
1596893495.5,286047001.1,N
1596893515.3,286046998.2,N
1596893535.1,286046998.6,N
1596893555.9,286047001.0,N
1596893575.7,286047002.8,N
1596893595.6,286047002.4,N
1596893615.4,286046999.8,N
1596893635.2,286047002.5,N
1596893655.1,286047002.0,N
1596893656.0,286047002.0,N
1596893675.8,286047004.0,N
1596893695.7,286047003.4,N
1596893715.5,286047003.3,N
1596893735.3,286047004.1,N
1596893755.2,286047006.0,Y
1596893775.0,286046999.8,P
1596893775.9,286046999.8,N
1596893795.8,286047003.8,P
1596893815.6,286047003.7,N
1596893835.4,286047002.1,N
1596893855.3,286047000.0,N
1596893875.1,286046998.5,N
1596893895.9,286046999.5,N
1596893915.7,286046996.8,N
1596893935.5,286046994.9,N
1596893955.4,286046995.8,N
1596893975.2,286046993.8,N
1596893995.0,286046994.0,N
1596893996.0,286046994.0,N
1596894015.8,286046993.8,N
1596894035.6,286046995.9,N
1596894055.5,286046993.7,N
1596894075.3,286046993.9,N
1596894095.1,286046993.7,N
1596894115.9,286046993.3,N
1596894135.7,286046992.1,N
1596894155.6,286046993.2,N
1596894175.4,286046991.1,N
1596894195.2,286046991.4,N
1596894215.1,286046991.1,N
1596894216.0,286046991.1,N
1596894235.8,286046991.6,N
1596894255.6,286046989.3,N
1596894275.5,286046989.9,N
1596894295.3,286046988.8,N
1596894315.2,286046989.9,N
1596894335.9,286046987.5,Y
1596894355.7,286046993.6,P
1596894375.6,286046993.9,P
1596894395.4,286046993.9,P
1596894415.3,286046994.8,Y
1596894435.1,286046998.3,P
1596894436.0,286046998.3,N
1596894455.8,286047000.7,N
1596894475.7,286046998.5,N
1596894495.5,286047000.7,N
1596894515.4,286047000.6,N
1596894535.2,286046999.7,N
1596894555.0,286047002.4,N
1596894555.9,286047002.4,N
1596894575.8,286047002.6,N
1596894595.6,286047001.6,N
1596894615.5,286047002.4,N
1596894635.3,286047000.0,N
1596894655.1,286047002.3,N
1596894675.9,286047002.3,N
1596894695.7,286046999.9,N
1596894715.5,286047002.0,N
1596894735.4,286047001.9,N
1596894755.2,286047001.6,N
1596894775.1,286047002.3,N
1596894776.0,286047002.3,N
1596894795.8,286047002.4,N
1596894815.7,286047002.0,N
1596894835.5,286047001.8,N
1596894855.3,286047003.2,N
1596894875.2,286047004.1,N
1596894895.0,286047003.6,N
1596894895.9,286047003.6,N
1596894915.7,286047003.9,N
1596894935.6,286047004.0,N
1596894955.4,286047003.9,N
1596894975.3,286047001.4,N
1596894995.1,286047003.9,N
1596895015.8,286047003.5,N
1596895035.7,286047004.3,Y
1596895055.5,286047000.0,P
1596895075.4,286047000.6,N
1596895095.2,286046999.7,N
1596895115.0,286046999.7,N
1596895115.9,286046999.7,N
1596895135.8,286047000.3,N
1596895155.6,286046999.9,N
1596895175.6,286047000.4,N
1596895195.4,286047000.4,N
